Starlink 4694

operational
NORAD ID: 53708 Int'l Des: 2022-107 Owner: SPXS Country: US Constellation: starlink
LEOCIRCULAR

About Starlink 4694

Description loading...

Live Position

Loading 3D Globe...

Upcoming Passes

Altitude History

Altitude vs Time

uPlot chart will show altitude changes over time

Two-Line Element Set

1 53708U 22107J 25347.16190014 .00001071 00000-0 85393-4 0 9999
2 53708 53.2182 257.4219 0001647 92.0237 268.0944 15.08844227182002
Epoch: Dec 13, 2025 • Age: 28 hours

Current Status

Altitude 541.9 km
Velocity 7.60 km/s
Sub-Earth Point 37.83°N, 158.52°W
Launch Date Sep 5, 2022
Age 3.2 years
Type internet

Technical Details

Classification Payload
Mass 305.00 kg
Dry Mass 290.00 kg
Total Mass 305.00 kg
Length 0.20 m
Diameter 2.80 m
Span 9.00 m
Shape Box + pan
Manufacturer SPXS
Bus Type Starlink
Phase Status In Orbit
Owner/State SPXS/US

Large Constellations

Loading constellations...